Weather History for Frederick, MD

Change the Weather History Date:

Friday, January 4, 2013

  Actual Average (KHGR) Record (KHGR)
Temperature  
Mean Temperature 36 °F -  
Max Temperature 41 °F 39 °F 69 °F (1997)
Min Temperature 32 °F 25 °F 5 °F (2014)
Degree Days  
Heating Degree Days 28    
Moisture  
Dew Point 23 °F    
Average Humidity 65    
Maximum Humidity 69    
Minimum Humidity 53    
Precipitation  
Precipitation 0.00 in - - ()
Sea Level Pressure  
Sea Level Pressure 30.19 in    
Wind  
Wind Speed 9 mph (West)    
Max Wind Speed 18 mph    
Max Gust Speed 25 mph    
Visibility 10 miles    
Events      
Averages and records for this station are not official NWS values.
T = Trace of Precipitation, MM = Missing Value Source: NWS Daily Summary

Daily Weather History Graph

Daily Weather History Graph

Search for Another Location

Airport:

Trip Planner

Search our weather history database for the weather conditions in past years. The results will help you decide how hot, cold, wet, or windy it might be!

Date:

Astronomy

Jan. 04, 2013 Rise Set
Actual Time 7:29 AM EST 4:59 PM EST
Civil Twilight 6:59 AM EST 5:29 PM EST
Nautical Twilight 6:26 AM EST 6:03 PM EST
Astronomical Twilight 5:53 AM EST 6:35 PM EST
Moon No Moon Rise 11:13 AM EST (1/4)
Length of Visible Light 10h 29m
Length of Day
9h 29m
Waning Gibbous, 55% of the Moon is Illuminated
Jan 4
Waning Gibbous
Jan 4
Last Quarter
Jan 11
New
Jan 18
First Quarter
Jan 26
Full

Hourly Weather History & Observations

Time (EST) Temp. Windchill Dew Point Humidity Pressure Visibility Wind Dir Wind Speed Gust Speed Precip Events Conditions
12:05 AM 32.0 °F 22.1 °F 23.0 °F 69% 30.18 in 10.0 mi West 13.8 mph - N/A   Clear
12:50 AM 32.0 °F 27.5 °F 23.0 °F 69% 30.18 in 10.0 mi West 4.6 mph - N/A   Overcast
1:10 AM 32.0 °F 25.6 °F 23.0 °F 69% 30.18 in 10.0 mi West 6.9 mph - N/A   Overcast
1:30 AM 32.0 °F 24.2 °F 23.0 °F 69% 30.18 in 10.0 mi West 9.2 mph - N/A   Overcast
1:55 AM 32.0 °F 28.7 °F 23.0 °F 69% 30.19 in 10.0 mi West 3.5 mph - N/A   Overcast
2:15 AM 32.0 °F 24.2 °F 23.0 °F 69% 30.20 in 10.0 mi West 9.2 mph - N/A   Overcast
2:35 AM 33.8 °F 23.5 °F 23.0 °F 65% 30.20 in 10.0 mi WNW 16.1 mph 24.2 mph N/A   Mostly Cloudy
2:55 AM 32.0 °F 26.4 °F 23.0 °F 69% 30.21 in 10.0 mi WNW 5.8 mph - N/A   Mostly Cloudy
3:20 AM 32.0 °F 27.5 °F 23.0 °F 69% 30.21 in 10.0 mi West 4.6 mph - N/A   Overcast
3:40 AM 32.0 °F 23.6 °F 23.0 °F 69% 30.21 in 10.0 mi West 10.4 mph 16.1 mph N/A   Overcast
4:00 AM 32.0 °F 21.2 °F 23.0 °F 69% 30.21 in 10.0 mi WNW 16.1 mph - N/A   Overcast
4:20 AM 32.0 °F 22.5 °F 23.0 °F 69% 30.21 in 10.0 mi WNW 12.7 mph 23.0 mph N/A   Overcast
4:45 AM 32.0 °F 24.2 °F 23.0 °F 69% 30.21 in 10.0 mi WNW 9.2 mph - N/A   Overcast
5:05 AM 32.0 °F 26.4 °F 23.0 °F 69% 30.22 in 10.0 mi WNW 5.8 mph - N/A   Overcast
6:47 AM 32.0 °F 25.6 °F 21.2 °F 64% 30.22 in 10.0 mi West 6.9 mph - N/A   Overcast
7:45 AM 32.0 °F 25.6 °F 21.2 °F 64% 30.21 in 10.0 mi West 6.9 mph - N/A   Overcast
8:55 AM 33.8 °F 28.6 °F 23.0 °F 65% 30.21 in 10.0 mi West 5.8 mph - N/A   Overcast
9:50 AM 35.6 °F 26.2 °F 23.0 °F 60% 30.21 in 10.0 mi West 15.0 mph 18.4 mph N/A   Overcast
10:50 AM 39.2 °F 31.2 °F 24.8 °F 56% 30.22 in 10.0 mi West 13.8 mph 21.9 mph N/A   Mostly Cloudy
11:50 AM 41.0 °F 32.2 °F 24.8 °F 53% 30.19 in 10.0 mi West 18.4 mph 25.3 mph N/A   Mostly Cloudy
12:50 PM 39.2 °F 32.5 °F 24.8 °F 56% 30.15 in 10.0 mi WNW 10.4 mph 17.3 mph N/A   Scattered Clouds
1:50 PM 41.0 °F 33.5 °F 24.8 °F 53% 30.13 in 10.0 mi West 13.8 mph 19.6 mph N/A   Scattered Clouds
3:46 PM 39.2 °F 30.8 °F 24.8 °F 56% 30.13 in 10.0 mi West 15.0 mph 23.0 mph N/A   Clear
4:48 PM 37.4 °F 30.8 °F 23.0 °F 56% 30.14 in 10.0 mi WNW 9.2 mph 24.2 mph N/A   Clear
5:50 PM 35.6 °F 27.1 °F 21.2 °F 56% 30.14 in 10.0 mi West 12.7 mph 18.4 mph N/A   Clear
6:45 PM 35.6 °F 28.6 °F 21.2 °F 56% 30.16 in 10.0 mi West 9.2 mph - N/A   Clear
7:45 PM 33.8 °F 27.0 °F 21.2 °F 60% 30.18 in 10.0 mi WSW 8.1 mph - N/A   Clear
8:00 PM 32.0 °F 27.5 °F 23.0 °F 69% 30.18 in 10.0 mi SW 4.6 mph 9.2 mph N/A   Clear
8:20 PM 32.0 °F 26.4 °F 23.0 °F 69% 30.18 in 10.0 mi WSW 5.8 mph - N/A   Clear
8:40 PM 32.0 °F 25.6 °F 23.0 °F 69% 30.18 in 10.0 mi WSW 6.9 mph - N/A   Clear
9:00 PM 32.0 °F 24.8 °F 23.0 °F 69% 30.18 in 10.0 mi WSW 8.1 mph - N/A   Clear
9:25 PM 32.0 °F 27.5 °F 23.0 °F 69% 30.18 in 10.0 mi SW 4.6 mph - N/A   Clear
9:45 PM 32.0 °F 28.7 °F 23.0 °F 69% 30.18 in 10.0 mi SSW 3.5 mph - N/A   Clear
10:05 PM 32.0 °F 27.5 °F 23.0 °F 69% 30.19 in 10.0 mi SW 4.6 mph - N/A   Clear
10:25 PM 32.0 °F 27.5 °F 23.0 °F 69% 30.18 in 10.0 mi SW 4.6 mph - N/A   Clear
10:50 PM 32.0 °F 28.7 °F 23.0 °F 69% 30.19 in 10.0 mi SW 3.5 mph - N/A   Clear
11:10 PM 32.0 °F - 23.0 °F 69% 30.18 in 10.0 mi Calm Calm - N/A   Clear
11:30 PM 32.0 °F - 23.0 °F 69% 30.18 in 10.0 mi Calm Calm - N/A   Clear
11:50 PM 32.0 °F 28.7 °F 23.0 °F 69% 30.18 in 10.0 mi SSE 3.5 mph - N/A   Clear